Wind_Speed
11 15 27 31 38 40 43 38 31 27 26 26 22 19 19 22 24 25 22 20 16 7 7 6 6 6 6 6 3 6 3 1 2 3 3 2 3 2 2 2 3 5 6 5 5 5 9 11 4 2 3 11 14 16
24 35 42 46 43 40 36 31 28 29 28 25 20 17 16 16 17 19 20 19 16 7 6 8 8 8 7 6 8 11 2 4 5 2 0 1 2 1 2 3 3 3 3 2 4 2 2 7 7 15 12 7 8 18
32 32 27 29 30 34 36 33 30 26 24 21 18 17 16 15 15 16 17 17 13 8 7 7 6 5 5 5 7 6 3 4 4 4 5 1 1 2 2 4 2 1 3 0 4 2 2 17 17 11 6 14 24 24
19 27 35 37 32 30 31 29 26 23 21 19 16 15 14 13 12 11 16 15 11 8 5 3 7 4 2 8 7 4 5 7 7 4 3 2 2 6 3 2 3 3 2 2 4 8 20 17 15 21 28 27 27 27
36 37 31 28 32 31 29 27 23 20 19 16 14 15 15 14 13 12 12 10 9 4 4 6 9 6 4 4 5 6 9 7 4 3 2 2 3 2 2 1 2 7 5 3 8 17 17 20 33 34 32 32 28 27
35 33 29 32 32 31 28 26 22 20 18 18 17 15 13 12 11 11 4 4 7 10 5 2 4 4 3 4 5 5 5 5 5 5 4 4 5 5 2 2 6 13 16 21 13 25 28 33 32 32 35 38 33 26
34 31 33 32 30 28 28 23 22 20 19 17 13 11 11 9 10 4 6 7 8 7 4 3 2 3 3 3 3 2 3 3 4 4 4 4 5 8 1 7 5 14 18 23 16 17 20 27 29 36 34 41 39 38
30 32 32 33 34 28 25 23 21 19 16 14 14 15 14 13 16 14 10 6 6 5 4 3 1 2 2 1 1 1 2 3 5 3 2 3 2 3 3 9 11 7 9 18 19 25 30 33 38 41 40 38 39 37
40 40 35 31 28 26 24 21 19 18 19 19 18 16 14 9 5 7 6 4 5 4 4 3 3 2 1 1 1 0 1 1 1 2 3 5 2 3 5 5 5 13 16 27 32 34 35 35 35 35 35 34 36 37
35 33 30 27 26 24 22 21 21 21 21 20 17 5 5 7 9 7 2 2 3 4 3 3 3 1 2 3 2 2 1 1 1 3 4 2 3 9 2 5 13 20 25 28 31 33 32 34 35 37 37 38 38 38
29 29 28 26 24 22 22 21 21 21 20 12 3 4 13 11 3 2 3 4 4 4 2 2 2 2 2 2 2 1 1 1 1 3 2 2 2 3 5 12 18 22 24 28 30 33 36 37 38 40 42 42 42 41
27 25 23 22 22 22 21 21 21 22 10 5 8 14 6 2 3 5 1 4 1 2 2 3 2 1 1 0 2 2 1 1 5 1 0 2 1 5 13 22 28 27 29 30 30 33 33 34 36 40 42 42 42 42
26 24 23 22 21 21 19 19 17 10 13 12 4 4 1 3 7 4 1 4 2 2 4 3 1 1 1 0 1 1 1 4 4 1 3 3 2 16 23 28 32 33 31 33 34 33 33 35 35 37 39 34 31 28
24 23 22 21 19 18 17 14 14 16 4 2 2 4 3 4 2 3 4 3 2 3 7 4 2 1 1 1 1 1 3 1 2 1 3 2 15 26 29 27 28 35 36 35 35 35 34 36 38 35 30 25 17 14
23 22 20 17 17 16 15 15 12 7 3 3 2 1 2 1 1 3 2 1 3 6 5 3 1 1 2 2 1 2 5 4 5 3 2 15 24 27 30 32 35 37 36 36 35 35 34 35 35 31 24 15 7 4
22 20 16 15 14 12 10 9 7 3 3 2 3 3 3 1 0 3 4 3 6 5 4 2 3 3 3 3 1 5 3 5 3 2 16 22 26 34 38 38 37 34 34 34 32 33 31 30 29 26 21 9 2 1
19 16 13 13 12 10 10 8 3 3 3 2 3 3 3 1 1 1 1 1 6 7 2 3 2 7 1 1 2 4 4 3 10 22 23 29 35 40 38 35 35 34 33 31 31 29 27 24 22 18 14 7 2 4
18 16 13 11 10 9 7 2 2 3 3 3 2 2 1 1 1 2 2 3 5 4 5 3 3 2 4 4 4 4 5 19 26 29 36 38 39 36 33 34 33 32 30 29 26 25 22 20 17 13 8 3 7 7
17 13 12 11 8 3 2 2 3 3 2 3 1 2 2 3 4 6 6 6 7 8 3 4 2 3 3 6 5 13 22 26 29 36 40 39 34 33 32 31 32 29 27 25 22 21 18 14 12 9 5 2 8 13
13 11 9 8 5 2 2 2 2 3 2 1 1 1 3 2 3 3 4 4 5 4 4 3 4 4 4 9 15 21 26 28 29 35 38 34 34 33 33 31 27 25 23 20 18 15 13 8 6 4 1 5 11 15
8 8 5 5 3 2 2 2 2 2 0 1 2 3 2 2 2 3 3 3 5 4 4 5 7 9 14 19 22 24 27 25 25 25 30 35 33 32 29 25 22 20 18 17 15 13 8 6 4 3 4 9 12 14
4 5 3 2 2 2 3 3 2 1 1 1 2 3 2 1 1 1 2 4 4 3 4 7 14 19 24 26 26 24 23 22 22 23 22 24 28 27 25 20 19 18 14 12 10 8 6 5 3 5 8 13 14 17
3 3 2 2 2 2 1 2 1 3 2 3 3 2 2 2 1 3 3 3 3 4 7 13 18 21 23 23 20 18 16 17 20 20 22 23 22 21 18 14 13 12 10 7 5 2 3 4 8 12 16 20 23 26
4 2 2 2 2 1 1 2 2 2 2 3 3 3 3 3 4 2 2 2 2 7 13 19 21 23 22 20 19 17 15 15 17 18 19 19 20 17 11 11 10 8 5 4 2 2 5 9 12 17 20 24 28 31
1 2 1 3 2 2 4 4 5 3 1 1 2 3 3 3 1 1 2 2 7 14 19 22 22 22 22 23 21 19 14 14 15 17 18 15 15 11 6 7 6 4 3 0 4 7 10 14 17 22 27 30 34 38
3 1 2 1 1 1 3 1 1 2 1 2 3 3 3 2 1 3 1 8 12 19 23 23 24 25 23 20 21 20 18 12 10 12 16 13 10 7 5 2 3 5 4 5 10 15 18 21 26 30 34 36 38 40
2 2 1 2 1 2 2 1 1 2 1 2 2 2 2 1 3 1 5 11 17 21 21 20 19 19 20 18 16 16 13 9 6 8 11 9 8 6 5 6 8 9 7 12 18 22 27 31 34 37 38 37 35 35
1 2 2 3 2 2 3 1 2 3 2 2 1 1 3 3 2 4 8 17 18 20 19 17 14 14 13 12 14 14 12 7 4 3 7 10 13 15 15 15 13 11 14 18 23 29 33 36 37 36 36 37 37 35
1 1 2 0 1 2 2 3 2 2 1 2 2 2 2 3 6 11 13 15 17 17 18 17 15 11 9 9 10 12 12 12 13 16 18 20 21 21 19 19 20 22 24 26 26 27 27 28 30 33 34 34 34 33
0 2 1 1 2 2 1 2 1 2 3 4 4 4 5 5 7 10 10 13 16 17 16 15 15 13 14 13 15 16 15 15 15 16 17 18 18 17 17 19 21 22 22 24 27 28 29 31 32 33 33 33 32 31
1 3 1 1 1 1 2 4 5 6 6 5 6 8 7 5 5 5 8 13 14 14 12 12 12 13 14 14 14 16 17 17 15 14 14 15 16 16 16 17 19 21 24 26 28 29 30 31 31 31 31 31 29 28
1 2 1 1 1 2 3 1 1 1 2 2 2 2 3 3 2 4 8 11 10 11 11 11 11 12 14 14 14 15 14 13 14 14 15 16 17 18 19 20 20 21 23 25 26 26 26 28 29 28 28 27 26 25
0 1 2 2 1 1 2 3 1 1 2 1 1 2 1 2 2 4 8 11 11 11 10 10 9 10 10 13 12 11 12 14 16 15 15 17 18 19 20 21 21 21 22 24 24 24 24 25 26 25 25 25 24 23
Wind_Direction
236 208 194 190 190 184 178 169 165 164 152 139 144 156 170 181 190 198 216 223 211 196 168 173 165 154 156 162 143 151 114 202 85 171 212 219 210 256 313 293 194 174 174 199 206 215 246 356 33 57 326 325 339 356
168 162 161 154 150 147 144 143 146 136 134 136 143 146 150 160 173 184 190 190 189 169 150 153 154 167 176 177 162 173 162 149 164 114 61 103 200 348 159 262 323 248 203 197 203 222 130 53 17 330 321 305 19 354
131 133 133 137 142 142 141 138 136 134 136 144 148 152 156 162 169 178 175 166 164 122 119 132 120 139 170 176 182 147 159 159 146 123 143 137 202 138 207 238 262 280 54 218 20 321 206 323 334 351 43 321 318 319
170 157 150 145 139 139 137 133 132 138 141 144 149 153 155 157 160 172 173 167 167 130 117 117 130 125 130 194 190 176 167 162 156 154 113 128 151 196 230 239 188 233 1 219 262 306 307 307 309 307 304 303 301 298
158 149 144 140 139 136 137 141 141 139 142 145 145 141 139 140 142 151 151 140 148 126 114 134 113 95 138 145 172 155 162 169 168 134 93 207 225 205 235 37 230 213 219 240 272 282 277 286 298 303 301 302 297 290
153 144 144 145 146 148 151 144 143 142 142 143 146 138 137 143 147 146 97 111 132 132 120 116 122 107 76 153 179 193 228 213 189 178 195 216 212 200 178 229 250 243 260 267 272 290 287 288 291 287 295 299 296 292
153 150 150 153 152 152 143 143 143 145 146 143 144 141 140 144 154 113 110 118 135 139 100 78 63 133 91 106 133 173 203 207 202 190 211 209 219 203 170 257 234 255 272 286 292 295 288 285 287 293 289 292 293 286
158 156 156 154 152 141 143 147 146 143 149 147 136 132 124 116 112 101 94 100 120 120 96 101 291 114 96 103 110 191 200 194 208 223 200 207 205 211 262 258 284 296 304 302 309 302 294 292 289 288 291 293 290 283
154 152 157 146 139 145 148 146 147 146 139 136 134 128 120 112 77 102 99 87 93 97 107 94 127 210 131 99 327 38 198 43 191 219 232 177 182 222 238 281 328 318 318 313 306 302 298 291 286 286 287 284 276 277
141 139 141 145 144 146 145 146 142 140 141 138 132 94 82 104 115 118 66 56 52 47 67 93 135 74 70 39 19 358 32 225 259 237 168 214 241 256 194 329 303 303 307 307 302 299 300 297 296 293 288 284 278 275
137 139 141 143 144 148 148 144 145 151 147 142 107 78 132 131 112 75 70 48 358 24 52 91 94 93 52 92 232 14 223 252 317 254 232 217 180 277 289 301 313 314 313 308 300 292 294 293 291 291 291 289 284 278
137 140 145 149 145 142 146 149 153 154 153 144 125 119 126 115 82 81 353 330 73 196 149 125 103 102 97 67 88 318 234 81 246 198 58 255 128 307 325 330 330 327 318 312 315 307 312 309 308 301 297 292 287 284
142 140 136 136 139 143 147 151 154 153 132 121 93 103 80 14 44 98 204 313 1 196 164 153 54 112 156 166 91 232 329 236 322 277 232 194 321 335 336 333 329 326 325 325 322 322 320 316 316 311 304 309 308 297
134 135 138 140 140 138 143 147 150 146 126 97 92 33 100 330 256 183 177 182 144 140 147 136 105 91 162 60 144 223 245 349 302 292 240 230 335 331 332 329 320 325 329 328 327 324 323 325 321 321 321 323 313 310
132 135 137 137 140 143 144 146 153 152 86 84 84 144 202 174 130 141 188 116 143 154 158 127 104 10 11 55 199 1 341 257 214 229 241 320 322 328 329 328 328 328 329 327 327 326 327 328 325 326 330 334 315 334
137 133 129 136 143 149 147 148 147 119 73 77 84 86 132 84 235 189 217 239 199 178 154 139 97 49 278 169 117 226 161 233 245 225 311 321 324 332 330 330 328 328 326 326 328 329 329 330 331 331 334 338 310 201
142 124 138 142 154 157 149 139 117 80 65 59 78 96 110 84 147 106 138 139 167 172 170 130 113 227 104 341 269 198 212 232 317 316 325 326 327 327 327 327 328 329 329 329 329 329 331 333 337 341 348 10 146 188
129 129 135 139 142 139 128 82 85 79 69 105 111 138 165 275 255 203 184 189 191 211 173 214 150 151 207 199 249 247 289 317 323 321 318 319 321 323 327 326 329 330 329 328 330 332 334 336 342 349 349 74 129 149
124 131 137 137 139 109 95 73 76 96 113 114 189 240 257 257 263 257 253 242 237 227 223 195 185 208 233 229 266 311 316 318 315 314 312 315 322 323 324 328 330 328 329 330 335 334 332 333 335 341 342 175 142 138
134 136 145 154 153 93 86 76 82 103 141 169 256 279 255 256 229 267 283 266 246 236 231 219 215 225 253 301 311 308 308 311 311 310 310 316 321 324 325 325 325 329 330 336 338 337 338 339 357 17 57 151 147 139
125 130 137 146 136 78 83 107 67 82 276 220 305 315 299 262 242 278 294 235 216 226 244 257 280 297 302 302 307 307 305 307 304 302 305 311 318 316 319 325 330 332 334 337 339 342 344 356 14 56 122 132 132 134
112 112 104 120 90 86 75 57 64 349 320 347 325 326 312 351 316 225 260 228 242 252 261 297 309 311 309 309 311 308 306 304 301 301 305 310 314 318 320 323 329 330 336 337 343 350 13 33 77 121 132 128 134 133
139 113 69 62 78 56 35 5 3 9 71 353 335 6 341 321 328 310 261 238 260 271 306 315 315 313 311 312 310 310 309 305 303 308 315 319 317 318 318 320 326 325 330 331 341 347 85 120 137 136 135 134 133 132
108 99 55 55 54 118 82 58 21 5 5 26 43 331 312 317 327 249 254 267 274 319 325 326 328 326 326 328 329 326 326 315 310 315 328 324 319 325 321 326 326 328 330 325 316 141 137 138 141 138 136 133 130 128
42 26 33 35 57 70 36 4 351 37 328 336 33 322 318 328 349 297 244 321 330 335 335 335 335 334 329 329 333 335 340 329 322 322 340 332 327 332 333 327 340 353 4 256 147 144 139 140 140 136 133 132 129 126
73 15 54 153 346 93 183 60 250 230 141 343 241 301 336 34 9 261 322 333 334 336 338 336 333 330 333 338 333 339 340 332 324 338 350 348 346 351 356 17 73 79 81 134 137 136 133 133 132 130 127 128 127 124
53 267 122 130 113 153 116 135 121 117 120 210 263 12 56 21 267 294 333 339 335 337 337 336 332 329 329 339 346 348 346 343 327 6 3 12 29 46 67 90 103 105 129 138 140 140 138 137 133 128 124 123 125 126
86 164 159 181 187 215 150 93 147 208 236 179 165 12 172 209 271 332 329 332 335 339 342 345 345 344 345 350 355 5 14 25 50 50 56 66 72 76 79 84 86 103 119 129 132 133 133 129 127 130 131 129 127 127
125 146 175 219 208 226 233 200 220 162 185 202 168 255 266 268 304 317 328 338 343 345 351 1 13 19 22 21 40 45 53 68 82 86 83 78 78 76 83 90 97 105 112 118 120 120 124 127 126 124 122 121 121 122
105 181 215 195 146 246 214 213 216 227 243 245 271 283 287 293 308 321 333 346 355 1 4 8 13 22 33 47 56 59 64 68 74 75 77 78 80 87 96 102 109 115 122 126 126 126 126 126 125 124 124 123 124 123
187 193 259 246 258 262 281 278 272 270 269 265 258 263 280 299 309 331 350 357 1 2 12 29 36 46 47 54 61 65 62 65 65 72 80 86 91 97 102 107 111 117 121 123 124 126 127 127 126 125 125 124 123 122
186 199 248 314 257 310 304 292 286 266 260 255 260 273 295 296 303 328 349 2 11 18 28 35 47 53 52 50 57 68 61 72 73 81 86 92 98 102 106 109 113 117 121 123 124 125 128 126 125 125 125 123 122 121
229 227 263 292 294 320 335 327 333 315 254 259 267 298 296 312 321 350 357 9 14 21 33 43 51 57 69 64 63 71 81 89 85 89 94 101 104 107 109 111 114 118 122 122 123 124 125 125 123 122 121 120 118 117
Height
1369 1368 1373 1379 1383 1388 1393 1400 1405 1411 1417 1422 1428 1433 1438 1442 1445 1450 1454 1459 1461 1464 1467 1465 1466 1469 1472 1474 1479 1482 1489 1485 1488 1492 1490 1486 1488 1489 1490 1485 1485 1487 1489 1485 1485 1482 1482 1475 1473 1477 1487 1483 1480 1479
1368 1370 1373 1378 1384 1390 1397 1402 1408 1415 1420 1425 1430 1434 1438 1440 1445 1449 1453 1458 1461 1462 1463 1465 1467 1470 1469 1473 1475 1480 1481 1480 1482 1486 1489 1491 1490 1495 1494 1491 1485 1488 1484 1484 1484 1477 1477 1477 1480 1481 1480 1481 1480 1478
1375 1379 1382 1387 1391 1396 1402 1408 1414 1419 1424 1429 1433 1436 1440 1443 1446 1451 1453 1455 1457 1459 1466 1468 1468 1469 1470 1472 1475 1475 1480 1483 1482 1481 1485 1491 1495 1493 1497 1492 1485 1483 1482 1484 1482 1476 1476 1477 1477 1478 1478 1478 1478 1478
1380 1383 1388 1392 1396 1402 1408 1413 1420 1424 1428 1432 1435 1438 1441 1444 1447 1450 1451 1453 1456 1458 1463 1469 1468 1470 1471 1472 1473 1473 1476 1479 1482 1484 1484 1488 1492 1490 1493 1485 1486 1483 1482 1482 1480 1477 1473 1472 1474 1474 1472 1473 1472 1472
1382 1387 1392 1397 1402 1408 1414 1419 1424 1427 1431 1434 1437 1440 1443 1446 1447 1450 1452 1453 1454 1459 1463 1469 1470 1471 1471 1471 1472 1473 1477 1480 1482 1483 1485 1488 1487 1488 1485 1484 1484 1478 1479 1481 1475 1475 1474 1472 1467 1466 1466 1464 1464 1464
1385 1391 1397 1402 1408 1413 1418 1423 1427 1431 1434 1436 1440 1442 1444 1446 1447 1449 1452 1454 1455 1458 1462 1468 1470 1471 1471 1471 1473 1475 1477 1478 1480 1481 1482 1481 1482 1484 1488 1484 1472 1473 1473 1473 1472 1471 1469 1465 1463 1460 1458 1456 1454 1454
1390 1395 1401 1406 1411 1416 1421 1426 1430 1433 1436 1439 1441 1442 1444 1445 1447 1450 1454 1456 1457 1459 1460 1468 1469 1471 1471 1472 1474 1476 1476 1477 1478 1479 1479 1479 1479 1480 1481 1474 1470 1469 1469 1468 1467 1465 1462 1459 1455 1452 1450 1445 1444 1442
1393 1399 1404 1409 1414 1419 1424 1428 1432 1435 1438 1440 1442 1444 1446 1447 1450 1452 1455 1457 1458 1459 1462 1469 1472 1472 1472 1473 1474 1474 1475 1475 1476 1476 1477 1477 1477 1477 1478 1466 1465 1465 1465 1463 1461 1460 1456 1451 1447 1442 1440 1436 1431 1429
1396 1401 1407 1412 1418 1423 1427 1431 1434 1437 1440 1441 1444 1446 1448 1450 1453 1456 1457 1458 1459 1463 1463 1467 1474 1479 1472 1473 1473 1474 1474 1477 1476 1475 1474 1475 1473 1474 1465 1464 1464 1463 1462 1458 1454 1450 1445 1441 1436 1432 1429 1426 1421 1417
1400 1406 1412 1417 1422 1426 1430 1434 1437 1440 1442 1444 1447 1448 1452 1455 1457 1458 1460 1460 1461 1463 1465 1467 1469 1472 1473 1472 1473 1475 1474 1475 1480 1471 1470 1470 1466 1463 1463 1463 1463 1461 1457 1452 1447 1439 1434 1429 1425 1420 1416 1413 1409 1405
1406 1411 1416 1421 1426 1430 1433 1436 1440 1442 1445 1447 1448 1452 1456 1458 1459 1460 1462 1464 1467 1468 1467 1468 1469 1470 1473 1475 1475 1475 1477 1476 1479 1471 1468 1464 1460 1463 1462 1460 1457 1454 1449 1444 1440 1433 1428 1422 1416 1410 1403 1398 1394 1391
1412 1417 1422 1426 1430 1433 1437 1439 1441 1444 1447 1448 1449 1454 1458 1459 1460 1463 1474 1470 1469 1470 1468 1468 1470 1472 1473 1473 1474 1476 1477 1476 1480 1467 1468 1464 1461 1458 1457 1453 1448 1444 1440 1434 1429 1423 1417 1411 1405 1398 1391 1384 1379 1374
1419 1423 1427 1430 1434 1437 1439 1442 1445 1447 1449 1451 1452 1455 1457 1463 1469 1474 1480 1478 1475 1466 1468 1469 1471 1472 1473 1474 1476 1477 1479 1475 1466 1467 1460 1459 1454 1453 1450 1445 1439 1436 1431 1425 1419 1414 1407 1401 1394 1387 1379 1371 1364 1359
1424 1428 1431 1434 1437 1440 1443 1445 1447 1449 1451 1452 1453 1462 1466 1473 1470 1467 1467 1466 1466 1466 1468 1469 1471 1473 1473 1475 1476 1476 1472 1470 1473 1478 1461 1453 1450 1447 1444 1440 1435 1428 1423 1417 1411 1405 1398 1391 1383 1376 1370 1363 1358 1354
1429 1432 1435 1438 1440 1443 1445 1447 1449 1451 1451 1452 1454 1464 1467 1462 1462 1462 1464 1465 1466 1467 1469 1470 1472 1474 1474 1477 1476 1475 1477 1475 1467 1462 1452 1449 1446 1442 1437 1433 1428 1421 1415 1409 1404 1397 1391 1384 1377 1369 1363 1359 1357 1355
1433 1436 1439 1442 1444 1445 1447 1449 1450 1452 1453 1455 1457 1461 1461 1461 1462 1463 1464 1464 1466 1467 1469 1470 1473 1479 1478 1476 1477 1477 1477 1473 1454 1450 1449 1445 1441 1436 1432 1427 1421 1416 1410 1404 1398 1392 1386 1379 1373 1366 1360 1357 1356 1356
1436 1438 1442 1444 1445 1447 1449 1451 1452 1453 1454 1456 1458 1459 1460 1461 1462 1462 1463 1464 1465 1467 1469 1470 1477 1475 1474 1476 1474 1464 1463 1452 1448 1445 1442 1440 1436 1431 1426 1421 1416 1410 1404 1398 1393 1387 1381 1376 1370 1365 1361 1358 1357 1358
1439 1442 1445 1446 1448 1449 1451 1452 1453 1455 1456 1458 1459 1460 1460 1461 1462 1462 1463 1464 1466 1466 1466 1468 1466 1471 1471 1470 1464 1452 1448 1446 1443 1441 1437 1434 1431 1426 1421 1415 1410 1405 1399 1394 1389 1383 1378 1374 1369 1366 1363 1361 1359 1359
1443 1445 1447 1448 1450 1451 1452 1454 1455 1456 1458 1459 1460 1460 1460 1460 1460 1461 1462 1462 1463 1463 1463 1463 1464 1466 1460 1453 1451 1449 1446 1444 1440 1435 1430 1428 1425 1420 1415 1410 1405 1400 1395 1390 1385 1380 1377 1373 1370 1367 1365 1364 1363 1362
1446 1447 1449 1450 1452 1452 1453 1455 1456 1457 1458 1459 1459 1459 1459 1459 1459 1460 1460 1460 1461 1461 1460 1458 1455 1452 1452 1451 1450 1447 1443 1440 1436 1428 1422 1421 1418 1413 1409 1406 1401 1397 1392 1387 1383 1379 1376 1374 1371 1369 1368 1367 1366 1366
1449 1450 1451 1452 1452 1453 1455 1455 1456 1457 1458 1458 1458 1458 1458 1457 1458 1458 1458 1458 1459 1457 1454 1452 1451 1450 1449 1447 1445 1442 1438 1435 1431 1428 1421 1414 1412 1409 1405 1401 1398 1394 1390 1386 1382 1379 1376 1374 1373 1371 1371 1370 1370 1371
1451 1452 1452 1453 1453 1454 1456 1457 1458 1458 1459 1458 1458 1458 1457 1457 1457 1457 1457 1457 1455 1452 1452 1450 1449 1447 1443 1441 1438 1435 1431 1428 1425 1422 1419 1415 1408 1404 1401 1397 1394 1391 1388 1385 1383 1380 1378 1376 1375 1374 1374 1374 1375 1376
1453 1453 1453 1453 1455 1456 1459 1458 1458 1458 1458 1458 1458 1457 1458 1457 1457 1457 1456 1454 1452 1451 1450 1449 1446 1443 1439 1435 1432 1429 1426 1422 1419 1416 1413 1409 1404 1401 1397 1394 1392 1389 1387 1385 1384 1382 1381 1379 1379 1378 1378 1378 1380 1381
1454 1454 1455 1455 1456 1458 1459 1458 1459 1459 1459 1459 1461 1462 1459 1457 1457 1456 1455 1452 1451 1450 1448 1446 1442 1437 1433 1430 1427 1424 1421 1418 1415 1412 1409 1404 1400 1396 1394 1392 1390 1388 1386 1385 1385 1384 1383 1383 1383 1384 1384 1385 1386 1388
1456 1459 1459 1457 1458 1459 1461 1461 1460 1460 1464 1465 1464 1462 1459 1458 1458 1457 1454 1451 1450 1448 1445 1441 1438 1434 1430 1426 1422 1419 1417 1414 1411 1408 1405 1401 1397 1394 1392 1390 1388 1387 1386 1386 1386 1386 1386 1387 1388 1389 1391 1392 1394 1396
1458 1459 1459 1459 1460 1460 1462 1464 1465 1464 1464 1465 1464 1460 1460 1459 1460 1457 1452 1451 1449 1446 1443 1439 1434 1429 1426 1424 1419 1416 1413 1411 1409 1406 1403 1399 1396 1393 1391 1390 1389 1389 1388 1388 1389 1390 1391 1393 1395 1397 1399 1402 1404 1406
1460 1460 1459 1460 1460 1460 1461 1461 1462 1463 1465 1466 1463 1462 1463 1465 1459 1454 1453 1451 1449 1445 1441 1437 1433 1429 1425 1421 1418 1415 1411 1409 1408 1407 1403 1400 1396 1394 1393 1392 1391 1392 1392 1393 1393 1395 1396 1398 1401 1404 1407 1411 1415 1418
1459 1459 1461 1461 1460 1461 1461 1462 1463 1464 1461 1461 1462 1465 1465 1459 1456 1454 1453 1450 1447 1444 1440 1436 1432 1428 1425 1422 1419 1415 1411 1409 1408 1407 1406 1403 1400 1398 1397 1396 1396 1397 1398 1400 1401 1403 1406 1409 1411 1413 1416 1418 1422 1427
1459 1460 1460 1460 1460 1460 1460 1460 1460 1460 1461 1461 1460 1460 1457 1456 1455 1454 1452 1449 1446 1443 1439 1435 1431 1429 1426 1424 1421 1418 1416 1414 1412 1411 1409 1407 1406 1406 1405 1405 1405 1407 1409 1411 1414 1416 1419 1420 1422 1425 1428 1431 1434 1437
1460 1460 1460 1460 1460 1460 1460 1460 1460 1460 1460 1460 1460 1458 1457 1455 1454 1453 1451 1449 1446 1442 1439 1436 1433 1431 1428 1426 1424 1422 1420 1418 1417 1417 1415 1414 1414 1415 1415 1415 1415 1416 1418 1419 1421 1423 1427 1429 1432 1435 1437 1440 1443 1446
1459 1460 1460 1459 1459 1459 1459 1459 1458 1458 1458 1458 1457 1457 1456 1455 1453 1452 1451 1449 1446 1444 1441 1438 1436 1434 1431 1430 1428 1427 1425 1425 1423 1423 1422 1422 1422 1422 1423 1424 1425 1426 1427 1428 1430 1433 1435 1438 1441 1443 1446 1449 1452 1454
1460 1459 1460 1459 1459 1459 1458 1458 1457 1457 1457 1456 1456 1455 1455 1454 1454 1453 1452 1450 1448 1445 1443 1441 1439 1438 1436 1435 1434 1433 1432 1431 1430 1430 1430 1430 1430 1430 1431 1432 1434 1435 1437 1438 1441 1443 1446 1447 1449 1452 1454 1457 1459 1461
1460 1460 1459 1459 1458 1458 1458 1458 1457 1456 1456 1456 1456 1455 1455 1455 1454 1454 1453 1451 1449 1447 1445 1444 1443 1442 1441 1440 1439 1438 1438 1437 1436 1436 1437 1437 1438 1438 1439 1440 1442 1444 1446 1447 1449 1452 1454 1456 1458 1460 1462 1464 1466 1468